West Mecca
DateTemperatureDew Point
12/08 - 10:00 AM65.7°44.0°
12/08 - 09:45 AM65.4°42.0°
12/08 - 09:30 AM64.4°42.5°
12/08 - 09:15 AM62.2°45.5°
12/08 - 09:00 AM60.9°45.5°
12/08 - 08:45 AM60.0°45.3°
12/08 - 08:30 AM58.3°45.0°
12/08 - 08:15 AM56.0°44.0°
12/08 - 08:00 AM54.2°43.2°
12/08 - 07:45 AM53.4°41.3°
12/08 - 07:30 AM51.1°38.3°
12/08 - 07:15 AM50.7°39.5°
12/08 - 07:00 AM52.4°38.4°
12/08 - 06:45 AM53.2°40.1°
12/08 - 06:30 AM53.4°40.8°
12/08 - 06:15 AM54.0°41.3°
12/08 - 06:00 AM51.4°40.8°
12/08 - 05:45 AM52.6°42.3°
12/08 - 05:30 AM50.1°42.9°
12/08 - 05:15 AM50.5°41.9°
12/08 - 05:00 AM50.9°38.7°
12/08 - 04:45 AM49.5°39.3°
12/08 - 04:30 AM50.1°39.1°
12/08 - 04:15 AM49.6°40.3°
12/08 - 04:00 AM48.5°40.5°
12/08 - 03:45 AM48.7°40.7°
12/08 - 03:30 AM49.3°42.4°
12/08 - 03:15 AM50.6°43.6°
12/08 - 03:00 AM52.8°44.4°
12/08 - 02:45 AM55.6°44.2°
12/08 - 02:30 AM59.2°44.7°
12/08 - 02:15 AM57.3°44.9°
12/08 - 02:00 AM52.7°44.9°
12/08 - 01:45 AM51.1°44.7°
12/08 - 01:30 AM51.5°45.3°
12/08 - 01:15 AM50.0°44.9°
12/08 - 01:00 AM52.4°45.6°
12/08 - 12:45 AM51.6°45.8°
12/08 - 12:30 AM51.7°45.5°
12/08 - 12:15 AM50.6°45.6°
12/08 - 12:00 AM51.2°45.9°
12/07 - 11:45 PM52.0°46.2°
12/07 - 11:30 PM51.9°46.2°
12/07 - 11:15 PM52.8°46.6°
12/07 - 11:00 PM54.4°46.8°
12/07 - 10:45 PM56.5°46.6°
12/07 - 10:30 PM58.4°46.4°
12/07 - 10:15 PM58.7°46.3°
12/07 - 10:00 PM59.0°46.2°
12/07 - 09:45 PM60.2°46.0°
12/07 - 09:30 PM61.0°45.9°
12/07 - 09:15 PM60.6°45.7°
12/07 - 09:00 PM60.4°45.5°
12/07 - 08:45 PM60.5°45.2°
12/07 - 08:30 PM61.0°45.3°
12/07 - 08:15 PM61.3°45.3°
12/07 - 08:00 PM61.9°45.5°
12/07 - 07:45 PM62.3°45.4°
12/07 - 07:30 PM62.8°45.1°
12/07 - 07:15 PM63.6°44.7°
12/07 - 07:00 PM64.2°44.3°
12/07 - 06:45 PM63.1°43.9°
12/07 - 06:30 PM63.6°43.8°
12/07 - 06:15 PM64.4°43.1°
12/07 - 06:00 PM65.8°42.3°
12/07 - 05:45 PM66.7°41.5°
12/07 - 05:30 PM66.3°42.3°
12/07 - 05:15 PM62.9°46.2°
12/07 - 05:00 PM63.6°47.3°
12/07 - 04:45 PM61.4°50.8°
12/07 - 04:30 PM63.3°53.3°
12/07 - 04:15 PM66.7°54.2°
12/07 - 04:00 PM68.8°53.0°
12/07 - 03:45 PM70.5°51.9°
12/07 - 03:30 PM72.0°50.8°
12/07 - 03:15 PM74.0°50.7°
12/07 - 03:00 PM76.5°51.8°
12/07 - 02:45 PM75.7°50.8°
12/07 - 02:30 PM74.9°50.0°
12/07 - 02:15 PM74.9°49.7°
12/07 - 02:00 PM75.7°50.7°
12/07 - 01:45 PM76.2°47.8°
12/07 - 01:30 PM75.8°45.8°
12/07 - 01:15 PM76.5°47.1°
12/07 - 01:00 PM76.3°47.7°
12/07 - 12:45 PM75.1°48.0°
12/07 - 12:30 PM74.4°48.7°
12/07 - 12:15 PM74.6°46.9°
12/07 - 12:00 PM73.4°42.6°
12/07 - 11:45 AM72.6°43.3°
12/07 - 11:30 AM72.8°44.8°
12/07 - 11:15 AM71.1°44.1°
12/07 - 11:00 AM71.0°44.6°
12/07 - 10:45 AM70.6°43.3°
12/07 - 10:30 AM70.2°46.7°
12/07 - 10:15 AM66.7°46.4°
12/07 - 10:00 AM65.1°46.2°
12/07 - 09:45 AM63.8°47.0°
12/07 - 09:30 AM62.7°47.9°
12/07 - 09:15 AM60.0°46.7°
12/07 - 09:00 AM59.3°47.4°
12/07 - 08:45 AM55.2°45.2°
12/07 - 08:30 AM53.7°42.3°
12/07 - 08:15 AM52.3°41.3°
12/07 - 08:00 AM50.7°40.8°
12/07 - 07:45 AM48.8°40.5°
12/07 - 07:30 AM46.3°41.4°
12/07 - 07:15 AM45.4°41.6°
12/07 - 07:00 AM45.3°41.3°
12/07 - 06:45 AM44.8°41.0°
12/07 - 06:30 AM45.2°41.1°
12/07 - 06:15 AM46.5°41.4°
12/07 - 06:00 AM47.9°41.6°
12/07 - 05:45 AM48.7°42.2°
12/07 - 05:30 AM47.6°42.2°
12/07 - 05:15 AM47.4°42.0°
12/07 - 05:00 AM49.0°42.0°
12/07 - 04:45 AM49.5°42.6°
12/07 - 04:30 AM48.8°42.4°
12/07 - 04:15 AM49.9°42.5°
12/07 - 04:00 AM51.0°43.4°
12/07 - 03:45 AM50.2°44.7°
12/07 - 03:30 AM49.6°44.8°
12/07 - 03:15 AM50.5°44.6°
12/07 - 03:00 AM53.0°42.3°
12/07 - 02:45 AM54.1°45.1°
12/07 - 02:30 AM53.2°44.6°
12/07 - 02:15 AM50.9°43.6°
12/07 - 02:00 AM50.1°43.4°
12/07 - 01:45 AM49.8°43.1°
12/07 - 01:30 AM51.8°42.7°
12/07 - 01:15 AM51.4°42.1°
12/07 - 01:00 AM50.5°42.3°
12/07 - 12:45 AM51.1°43.0°
12/07 - 12:30 AM50.6°43.2°
12/07 - 12:15 AM50.8°43.0°
12/07 - 12:00 AM51.9°43.4°
12/06 - 11:45 PM53.8°43.2°
12/06 - 11:30 PM60.4°40.4°
12/06 - 11:15 PM59.6°38.2°
12/06 - 11:00 PM54.5°40.4°
12/06 - 10:45 PM52.8°41.6°
12/06 - 10:30 PM52.1°42.4°
12/06 - 10:15 PM54.8°42.2°
12/06 - 10:00 PM58.6°39.0°
12/06 - 09:45 PM57.8°40.4°
12/06 - 09:30 PM56.0°41.9°
12/06 - 09:15 PM53.2°43.5°
12/06 - 09:00 PM52.3°44.7°
12/06 - 08:45 PM53.7°44.6°
12/06 - 08:30 PM56.2°44.4°
12/06 - 08:15 PM57.1°45.1°
12/06 - 08:00 PM59.7°44.2°
12/06 - 07:45 PM62.2°43.2°
12/06 - 07:30 PM62.2°44.4°
12/06 - 07:15 PM60.6°46.3°
12/06 - 07:00 PM59.9°47.9°
12/06 - 06:45 PM58.9°46.2°
12/06 - 06:30 PM61.6°45.3°
12/06 - 06:15 PM63.8°43.8°
12/06 - 06:00 PM61.7°45.9°
12/06 - 05:45 PM61.5°45.9°
12/06 - 05:30 PM60.9°46.8°
12/06 - 05:15 PM61.7°48.6°
12/06 - 05:00 PM62.5°50.4°
12/06 - 04:45 PM63.4°51.8°
12/06 - 04:30 PM65.6°51.7°
12/06 - 04:15 PM67.9°51.3°
12/06 - 04:00 PM70.1°49.4°
12/06 - 03:45 PM71.7°45.6°
12/06 - 03:30 PM73.1°44.1°
12/06 - 03:15 PM75.3°44.8°
12/06 - 03:00 PM79.3°44.9°
12/06 - 02:45 PM79.3°44.1°
12/06 - 02:30 PM79.2°45.9°
12/06 - 02:15 PM79.7°44.8°
12/06 - 02:00 PM79.4°46.0°
12/06 - 01:45 PM79.5°47.5°
12/06 - 01:30 PM79.0°46.9°
12/06 - 01:15 PM77.7°45.8°
12/06 - 01:00 PM76.8°47.1°
12/06 - 12:45 PM76.3°47.4°
12/06 - 12:30 PM75.8°47.7°
12/06 - 12:15 PM75.1°49.2°
12/06 - 12:00 PM74.5°50.6°
12/06 - 11:45 AM74.1°50.7°
12/06 - 11:30 AM73.6°51.0°
12/06 - 11:15 AM74.2°52.1°
12/06 - 11:00 AM74.1°49.1°
12/06 - 10:45 AM72.8°49.5°
12/06 - 10:30 AM71.8°54.1°